Regional Weather Roundup
Issued by NWS

Home | Current Version | Previous Version | Text Only | Print | Product List | Glossary On
Versions: 1 2 3 4 5 6 7 8 9 10 11 12 13 14 15 16 17 18 19 20 21 22 23 24 25 26 27 28 29 30 31 32 33 34 35 36 37 38 39 40 41 42 43 44 45 46 47 48 49 50
000
ASUS44 KLIX 031810
RWRLA
LOUISIANA WEATHER ROUNDUP
NATIONAL WEATHER SERVICE NEW ORLEANS LA
1200 PM CST TUE MAR 03 2015

NOTE: "FAIR" INDICATES FEW OR NO CLOUDS BELOW 12,000 FEET WITH NO
      SIGNIFICANT WEATHER AND/OR OBSTRUCTIONS TO VISIBILITY.
      SKY/WX - SKY CONDITION AND SIGNIFICANT WEATHER.
      TMP - AIR TEMPERATURE.    DP   - DEWPOINT TEMPERATURE.
      RH  - RELATIVE HUMIDITY.  PRES - PRESSURE.
      HX  - HEAT INDEX.         WCI  - WIND CHILL INDEX.

*  THESE STATIONS ARE NOT NWS OR FAA STATIONS AND ARE NOT UNDER
   NWS QUALITY CONTROL.

LAZ040-048-061>063-065-066-069-031900-
SOUTHEAST LOUISIANA

CITY           SKY/WX    TMP DP  RH WIND       PRES   REMARKS
N.O. AUDUBON     N/A     76  70  83 MISG        N/A
6HR MIN TEMP:  66; 6HR MAX TEMP:  77;

N.O. INTL ARPT PTSUNNY   79  68  69 S18G24    30.10F
6HR MIN TEMP:  65; 6HR MAX TEMP:  79;

N.O. LAKEFRONT CLOUDY    79  67  66 S14       30.11F
6HR MIN TEMP:  66; 6HR MAX TEMP:  79;

SLIDELL        CLOUDY    75  68  78 SE13      30.11F
6HR MIN TEMP:  64; 6HR MAX TEMP:  76;

BATON ROUGE    LGT RAIN  72  68  87 S17       30.08F VSB 1
6HR MIN TEMP:  58; 6HR MAX TEMP:  75; 6HR PCP: TRACE;

BOOTHVILLE     PTSUNNY   76  68  76 SE16G22   30.13F
6HR MIN TEMP:  62; 6HR MAX TEMP:  77;

BELLE CHASSE   PTSUNNY   78  66  66 S16       30.10F
6HR MIN TEMP:  66; 6HR MAX TEMP:  79;

BOGALUSA*        N/A     74  68  81 SE7       30.12F
6HR MIN TEMP:  66; 6HR MAX TEMP:  74;

GALLIANO*      CLOUDY    80  69  69 SE13G20   30.11F
6HR MIN TEMP:  56; 6HR MAX TEMP:  80;

NEW ROADS*     CLOUDY    72  69  92 SE10      30.07F
6HR MIN TEMP:  52; 6HR MAX TEMP:  72;

GONZALES*      CLOUDY    73  72  95 SW3       30.08F
6HR MIN TEMP:  64; 6HR MAX TEMP:  75;

HAMMOND*       NOT AVBL
HOUMA*         NOT AVBL
PORT FOURCHON* CLEAR     73  68  83 SE9G15    30.14F

$$

LAZ041-044-053-054-031900-
SOUTHWEST LOUISIANA

CITY           SKY/WX    TMP DP  RH WIND       PRES   REMARKS
LAKE CHARLES   CLOUDY    71  68  90 S14G20    30.05F
6HR MIN TEMP:  54; 6HR MAX TEMP:  72;

LAFAYETTE      PTSUNNY   76  69  79 S12G21    30.06F
6HR MIN TEMP:  54; 6HR MAX TEMP:  77; 6HR PCP: TRACE;

PATTERSON      CLOUDY    73  70  88 S13       30.08F
6HR MIN TEMP:  66; 6HR MAX TEMP:  73;

SALT POINT       N/A     73  68  84 S9        30.07F
6HR MIN TEMP:  65; 6HR MAX TEMP:  73; 6HR PCP:  0.03;

NEW IBERIA     PTSUNNY   78  70  76 S15G23    30.07F
6HR MIN TEMP:  58; 6HR MAX TEMP:  78;

CHENAULT AIRPK CLOUDY    72  68  88 S9        30.05

$$

LAZ027-028-031900-
CENTRAL LOUISIANA

CITY           SKY/WX    TMP DP  RH WIND       PRES   REMARKS
FORT POLK      NOT AVBL
ALEXANDRIA INT CLOUDY    62  60  93 SE6       30.04F
6HR MIN TEMP:  46; 6HR MAX TEMP:  62;

ALEXANDRIA     CLOUDY    64  62  93 S3        30.05F
6HR MIN TEMP:  45; 6HR MAX TEMP:  64;


$$

LAZ001-002-031900-
NORTHWEST LOUISIANA

CITY           SKY/WX    TMP DP  RH WIND       PRES   REMARKS
SHREVEPORT     CLOUDY    55  53  93 S7        30.01F FOG
6HR MIN TEMP:  44; 6HR MAX TEMP:  55; 6HR PCP: TRACE;

BARKSDALE AFB  CLOUDY    51  51 100 S7        30.02F
6HR MIN TEMP:  43; 6HR MAX TEMP:  51;

DTN SHREVEPORT CLOUDY    52  50  93 SE6       30.02F FOG
6HR MIN TEMP:  43; 6HR MAX TEMP:  52;


$$

LAZ014-016-031900-
NORTHEAST LOUISIANA

CITY           SKY/WX    TMP DP  RH WIND       PRES   REMARKS
MONROE         CLOUDY    58  57  97 S6        30.06F FOG
6HR MIN TEMP:  42; 6HR MAX TEMP:  58;

TALLULAH       CLOUDY    72  65  78 S7G17     30.06F
6HR MIN TEMP:  47; 6HR MAX TEMP:  74;


$$




USA.gov is the U.S. government's official web portal to all federal, state and local government web resources and services.